Tracking 29747 objects as of 9-Oct-2024
HD Live streaming from Space Station
objects crossing your sky now

DELTA 1 DEB

Track DELTA 1 DEB now!
10-day predictions


NORAD ID: 26829
Int'l Code: 1975-052KH
Perigee: 1,035.9 km
Apogee: 1,423.6 km
Inclination: 99.6 °
Period: 109.9 minutes
Semi major axis: 7600 km
RCS: 0.0065 m2 (small)
Launch date: June 12, 1975
Source: United States (US)
Launch site: AIR FORCE WESTERN TEST RANGE (AFWTR)

Note: This is SATELLITE DEBRIS
Your satellite tracking list
Your tracking list is empty




NASA's NSSDC Master Catalog

Two Line Element Set (TLE):
1 26829U 75052KH  24281.15439277  .00000284  00000-0  79213-3 0  9990
2 26829  99.6400 167.2718 0255068 242.7976 276.0434 13.10136366435392
Source of the keplerian elements: AFSPC